| time (UTC) | temp C | wind direction | speed KPH | gust KPH | rain 1hr cm | rain 24hr cm | rain mn cm | humidity % | barometer mb |
| 20260507154854 | 22 | 160 | 14.5 | 0.0 | 0.00 | 0.00 | 0.00 | 44 | 1015.0 |
| 20260507153354 | 22 | 160 | 14.5 | 0.0 | 0.00 | 0.00 | 0.00 | 44 | 1015.0 |
| 20260507151854 | 22 | 160 | 14.5 | 0.0 | 0.00 | 0.00 | 0.00 | 44 | 1015.0 |
| 20260507150353 | 22 | 160 | 14.5 | 0.0 | 0.00 | 0.00 | 0.00 | 44 | 1015.0 |
| 20260507144853 | 23 | 170 | 17.7 | 0.0 | 0.00 | 0.00 | 0.00 | 44 | 1015.0 |
| 20260507143355 | 23 | 170 | 17.7 | 0.0 | 0.00 | 0.00 | 0.00 | 44 | 1015.0 |
| 20260507141854 | 23 | 170 | 17.7 | 0.0 | 0.00 | 0.00 | 0.00 | 44 | 1015.0 |
| 20260507140353 | 23 | 170 | 17.7 | 0.0 | 0.00 | 0.00 | 0.00 | 44 | 1015.0 |
| 20260507134854 | 22 | 180 | 17.7 | 0.0 | 0.00 | 0.00 | 0.00 | 44 | 1015.0 |
| 20260507133353 | 22 | 180 | 17.7 | 0.0 | 0.00 | 0.00 | 0.00 | 44 | 1015.0 |
| 20260507131850 | 22 | 180 | 17.7 | 0.0 | 0.00 | 0.00 | 0.00 | 44 | 1015.0 |
| 20260507130353 | 22 | 180 | 17.7 | 0.0 | 0.00 | 0.00 | 0.00 | 44 | 1015.0 |
| 20260507124850 | 22 | 150 | 14.5 | 0.0 | 0.00 | 0.00 | 0.00 | 41 | 1016.0 |
| 20260507123432 | 22 | 150 | 14.5 | 0.0 | 0.00 | 0.00 | 0.00 | 41 | 1016.0 |
| 20260507121853 | 22 | 150 | 14.5 | 0.0 | 0.00 | 0.00 | 0.00 | 41 | 1016.0 |
| 20260507120354 | 22 | 150 | 14.5 | 0.0 | 0.00 | 0.00 | 0.00 | 41 | 1016.0 |
| 20260507114853 | 22 | 180 | 17.7 | 0.0 | 0.00 | 0.00 | 0.00 | 47 | 1016.0 |
| 20260507113420 | -17 | 0.0 | 0.0 | 0.00 | 0.00 | 0.00 | |||
| 20260507111853 | 22 | 180 | 17.7 | 0.0 | 0.00 | 0.00 | 0.00 | 47 | 1016.0 |
| 20260507110353 | -17 | 0.0 | 0.0 | 0.00 | 0.00 | 0.00 | |||
| 20260507104853 | 21 | 180 | 17.7 | 0.0 | 0.00 | 0.00 | 0.00 | 46 | 1017.0 |
| 20260507103353 | 21 | 180 | 17.7 | 0.0 | 0.00 | 0.00 | 0.00 | 46 | 1017.0 |
| 20260507101853 | 21 | 180 | 17.7 | 0.0 | 0.00 | 0.00 | 0.00 | 46 | 1017.0 |
| 20260507100354 | 21 | 180 | 17.7 | 0.0 | 0.00 | 0.00 | 0.00 | 46 | 1017.0 |
| 20260507094854 | -17 | 0.0 | 0.0 | 0.00 | 0.00 | 0.00 | |||
| 20260507093354 | -17 | 0.0 | 0.0 | 0.00 | 0.00 | 0.00 | |||
| 20260507091855 | -17 | 0.0 | 0.0 | 0.00 | 0.00 | 0.00 | |||
| 20260507090354 | -17 | 0.0 | 0.0 | 0.00 | 0.00 | 0.00 | |||
| 20260507084853 | 17 | 140 | 11.3 | 0.0 | 0.00 | 0.00 | 0.00 | 60 | 1017.0 |
| 20260507083354 | 17 | 140 | 11.3 | 0.0 | 0.00 | 0.00 | 0.00 | 60 | 1017.0 |
| 20260507081853 | 17 | 140 | 11.3 | 0.0 | 0.00 | 0.00 | 0.00 | 60 | 1017.0 |
| 20260507080354 | 17 | 140 | 11.3 | 0.0 | 0.00 | 0.00 | 0.00 | 60 | 1017.0 |
| 20260507074854 | 15 | 130 | 11.3 | 0.0 | 0.00 | 0.00 | 0.00 | 72 | 1017.0 |
| 20260507073353 | 15 | 130 | 11.3 | 0.0 | 0.00 | 0.00 | 0.00 | 72 | 1017.0 |
| 20260507071854 | 15 | 130 | 11.3 | 0.0 | 0.00 | 0.00 | 0.00 | 72 | 1017.0 |
| 20260507070353 | 15 | 130 | 11.3 | 0.0 | 0.00 | 0.00 | 0.00 | 72 | 1017.0 |
| 20260507064853 | 12 | 160 | 11.3 | 0.0 | 0.00 | 0.00 | 0.00 | 77 | 1017.0 |
| 20260507063353 | 12 | 160 | 11.3 | 0.0 | 0.00 | 0.00 | 0.00 | 77 | 1017.0 |
| 20260507061903 | 12 | 160 | 11.3 | 0.0 | 0.00 | 0.00 | 0.00 | 77 | 1017.0 |
| 20260507060354 | 12 | 160 | 11.3 | 0.0 | 0.00 | 0.00 | 0.00 | 77 | 1017.0 |
| 20260507054853 | 10 | 160 | 11.3 | 0.0 | 0.00 | 0.00 | 0.00 | 88 | 1017.0 |
| 20260507053401 | 10 | 160 | 11.3 | 0.0 | 0.00 | 0.00 | 0.00 | 88 | 1017.0 |
| 20260507051854 | 10 | 160 | 11.3 | 0.0 | 0.00 | 0.00 | 0.00 | 88 | 1017.0 |
| 20260507050353 | -17 | 0.0 | 0.0 | 0.00 | 0.00 | 0.00 | |||
| 20260507044847 | 7 | 180 | 8.0 | 0.0 | 0.00 | 0.00 | 0.00 | 100 | 1016.0 |
| 20260507043353 | 7 | 180 | 8.0 | 0.0 | 0.00 | 0.00 | 0.00 | 100 | 1016.0 |
| 20260507041854 | 7 | 180 | 8.0 | 0.0 | 0.00 | 0.00 | 0.00 | 100 | 1016.0 |
| 20260507040353 | 7 | 180 | 8.0 | 0.0 | 0.00 | 0.00 | 0.00 | 100 | 1016.0 |
| 20260507034850 | 5 | 190 | 8.0 | 0.0 | 0.00 | 0.00 | 0.00 | 93 | 1016.0 |
| 20260507033353 | 5 | 190 | 8.0 | 0.0 | 0.00 | 0.00 | 0.00 | 93 | 1016.0 |
| 20260507031850 | 5 | 190 | 8.0 | 0.0 | 0.00 | 0.00 | 0.00 | 93 | 1016.0 |
| 20260507030353 | 5 | 190 | 8.0 | 0.0 | 0.00 | 0.00 | 0.00 | 93 | 1016.0 |
| 20260507024850 | 7 | 4.8 | 0.0 | 0.00 | 0.00 | 0.00 | 93 | 1017.0 | |
| 20260507023353 | 7 | 4.8 | 0.0 | 0.00 | 0.00 | 0.00 | 93 | 1017.0 | |
| 20260507021854 | -17 | 0.0 | 0.0 | 0.00 | 0.00 | 0.00 | |||
| 20260507020353 | -17 | 0.0 | 0.0 | 0.00 | 0.00 | 0.00 | |||
| 20260507014853 | 7 | 4.8 | 0.0 | 0.00 | 0.00 | 0.00 | 93 | 1017.0 | |
| 20260507013353 | 7 | 4.8 | 0.0 | 0.00 | 0.00 | 0.00 | 93 | 1017.0 | |
| 20260507011853 | 7 | 4.8 | 0.0 | 0.00 | 0.00 | 0.00 | 93 | 1017.0 | |
| 20260507010354 | 7 | 4.8 | 0.0 | 0.00 | 0.00 | 0.00 | 93 | 1017.0 | |
| 20260507004853 | 7 | 4.8 | 0.0 | 0.00 | 0.00 | 0.00 | 93 | 1017.0 | |
| 20260507003354 | 8 | 4.8 | 0.0 | 0.00 | 0.00 | 0.00 | 87 | 1017.0 | |
| 20260507001853 | 8 | 4.8 | 0.0 | 0.00 | 0.00 | 0.00 | 87 | 1017.0 | |
| 20260507000353 | 8 | 4.8 | 0.0 | 0.00 | 0.00 | 0.00 | 87 | 1017.0 | |
| 20260506234853 | 10 | 4.8 | 0.0 | 0.00 | 0.00 | 0.00 | 82 | 1016.0 | |
| 20260506233353 | 10 | 4.8 | 0.0 | 0.00 | 0.00 | 0.00 | 82 | 1016.0 | |
| 20260506231851 | 10 | 4.8 | 0.0 | 0.00 | 0.00 | 0.00 | 82 | 1016.0 | |
| 20260506230353 | 10 | 4.8 | 0.0 | 0.00 | 0.00 | 0.00 | 82 | 1016.0 | |
| 20260506224850 | 11 | 4.8 | 0.0 | 0.00 | 0.00 | 0.00 | 82 | 1016.0 | |
| 20260506223353 | 11 | 4.8 | 0.0 | 0.00 | 0.00 | 0.00 | 82 | 1016.0 | |
| 20260506221853 | 11 | 4.8 | 0.0 | 0.00 | 0.00 | 0.00 | 82 | 1016.0 | |
| 20260506220353 | -17 | 0.0 | 0.0 | 0.00 | 0.00 | 0.00 | |||
| 20260506214906 | 12 | 4.8 | 0.0 | 0.00 | 0.00 | 0.00 | 77 | 1016.0 | |
| 20260506213353 | 12 | 4.8 | 0.0 | 0.00 | 0.00 | 0.00 | 77 | 1016.0 | |
| 20260506211847 | 12 | 4.8 | 0.0 | 0.00 | 0.00 | 0.00 | 77 | 1016.0 | |
| 20260506210353 | 12 | 4.8 | 0.0 | 0.00 | 0.00 | 0.00 | 77 | 1016.0 | |
| 20260506204854 | 11 | 260 | 8.0 | 0.0 | 0.00 | 0.00 | 0.00 | 77 | 1016.0 |
| 20260506203353 | 11 | 260 | 8.0 | 0.0 | 0.00 | 0.00 | 0.00 | 77 | 1016.0 |
| 20260506201847 | 11 | 260 | 8.0 | 0.0 | 0.00 | 0.00 | 0.00 | 77 | 1016.0 |
| 20260506200353 | 11 | 260 | 8.0 | 0.0 | 0.00 | 0.00 | 0.00 | 77 | 1016.0 |
| 20260506194910 | 15 | 160 | 11.3 | 0.0 | 0.00 | 0.00 | 0.00 | 63 | 1016.0 |
| 20260506193417 | 15 | 160 | 11.3 | 0.0 | 0.00 | 0.00 | 0.00 | 63 | 1016.0 |
| 20260506191854 | 15 | 160 | 11.3 | 0.0 | 0.00 | 0.00 | 0.00 | 63 | 1016.0 |
| 20260506190354 | 15 | 160 | 11.3 | 0.0 | 0.00 | 0.00 | 0.00 | 63 | 1016.0 |
| 20260506184856 | 17 | 150 | 14.5 | 0.0 | 0.00 | 0.00 | 0.00 | 56 | 1015.0 |
| 20260506183353 | 17 | 150 | 14.5 | 0.0 | 0.00 | 0.00 | 0.00 | 56 | 1015.0 |
| 20260506181854 | 17 | 150 | 14.5 | 0.0 | 0.00 | 0.00 | 0.00 | 56 | 1015.0 |
| 20260506180354 | -17 | 0.0 | 0.0 | 0.00 | 0.00 | 0.00 | |||
| 20260506174854 | 20 | 150 | 17.7 | 0.0 | 0.00 | 0.00 | 0.00 | 46 | 1014.0 |
| 20260506173353 | 20 | 150 | 17.7 | 0.0 | 0.00 | 0.00 | 0.00 | 46 | 1014.0 |
| 20260506171854 | 20 | 150 | 17.7 | 0.0 | 0.00 | 0.00 | 0.00 | 46 | 1014.0 |
| 20260506170353 | 20 | 150 | 17.7 | 0.0 | 0.00 | 0.00 | 0.00 | 46 | 1014.0 |
| 20260506164853 | 22 | 170 | 14.5 | 0.0 | 0.00 | 0.00 | 0.00 | 41 | 1014.0 |
| 20260506163353 | 22 | 170 | 14.5 | 0.0 | 0.00 | 0.00 | 0.00 | 41 | 1014.0 |
| 20260506161854 | 22 | 170 | 14.5 | 0.0 | 0.00 | 0.00 | 0.00 | 41 | 1014.0 |
| 20260506160353 | 22 | 170 | 14.5 | 0.0 | 0.00 | 0.00 | 0.00 | 41 | 1014.0 |